Simultaneous Nadir Overpasses (SNOs) Predictions

Prediction of SNOs between AURA and NPP Satellite Orbit:

Table of predicted SNOs for the next 14.0 days since TLE Epoch: 5/4/2024
Index Date (AURA) Time (AURA) Lat,Lon (AURA) SZA (AURA ) Date (NPP) Time (NPP) Lat,Lon (NPP) SZA (NPP ) Distance(km) Time Diff (sec)
1 05/06/2024 09:43:34 80.56, -57.93 73.70 05/06/2024 09:43:15 80.56, -57.98 73.73 1.02 19
2 05/06/2024 10:32:54 -80.68, 111.03 106.53 05/06/2024 10:33:55 -80.68, 111.18 106.60 2.81 61
3 05/08/2024 23:28:13 -80.57, -84.01 107.01 05/08/2024 23:27:54 -80.56, -84.06 106.99 0.86 19
4 05/09/2024 00:17:34 80.64, 84.43 72.86 05/09/2024 00:18:35 80.64, 84.37 72.82 1.11 61
5 05/11/2024 13:12:49 80.58,-109.99 72.31 05/11/2024 13:12:30 80.58,-109.93 72.31 1.03 19
6 05/11/2024 14:02:11 -80.64, 58.35 107.82 05/11/2024 14:03:13 -80.64, 58.26 107.85 1.54 62
7 05/14/2024 02:57:26 -80.59,-136.05 108.34 05/14/2024 02:57:09 -80.59,-136.06 108.32 0.37 17
8 05/14/2024 03:46:47 80.66, 32.35 71.54 05/14/2024 03:47:50 80.66, 32.33 71.49 0.31 63
9 05/16/2024 16:42:01 80.60,-162.09 71.06 05/16/2024 16:41:46 80.60,-162.06 71.07 0.48 15



Historial Predications of SNOs between AURA and NPP
